Tracking 20036 objects as of 21-Nov-2019
Live streaming from Space Station
objects crossing your sky now

SL-12 DEB

Track SL-12 DEB now!
10-day predictions


NORAD ID: 44563
Int'l Code: 2010-041AJ
Perigee: 328.2 km
Apogee: 17,919.1 km
Inclination: 66.1 °
Period: 319.9 minutes
Semi major axis: 15494 km
RCS: Unknown
Launch date: September 2, 2010
Source: Commonwealth of Independent States (former USSR) (CIS)
Launch site: ()

Note: This is SATELLITE DEBRIS
aabbcc
Your satellite tracking list
Your tracking list is empty




NASA's NSSDC Master Catalog

Two Line Element Set (TLE):
1 44563U 10041AJ  19322.29754300  .00541688  00000-0  16705+0 0  9995
2 44563  66.1302 258.9629 5676458  30.6528 352.7858  4.50122413  2921
Source of the keplerian elements: AFSPC